Location: Brodeslavy
(49.9527°N, 13.5567°E)
Time: 05:10:09
(UTC+00:00)

ARIANE 5 R/B - Pass Details

Date: 17 June 2025
Orbit: 615 x 647 km, 98.0° (Epoch: 10 July)

Event Time Altitude Azimuth Distance (km) Brightness Sun altitude
Exits shadow 21:46:15 24° 151° (SSE) 1,344 3.7 -14.5°
Maximum altitude 21:48:54 70° 73° (ENE) 690 2.7 -14.6°
Drops below altitude 10° 21:53:22 10° 350° (N) 2,057 6.6 -14.8°
Sets 21:55:36 0° 348° (NNW) 2,974 8.0 -15.0°
